Location: Little Barford
(52.2000°N, 0.2667°W)
Time: 00:46:21
(UTC+00:00)

Daily predictions for brighter satellites

Satellite Brightness Start Highest point End
(mag) Time Altitude Azimuth Time Altitude Azimuth Time Altitude Azimuth
CENTAUR R/B 4.4 02:05:13 29° NNE 02:05:13 29° NNE 02:09:42 10° NE
ACS3 Solar Sail 4.0 02:00:43 10° NE 02:03:45 18° ENE 02:03:45 18° ENE
ADEOS Rocket 4.4 02:33:06 10° NNE 02:38:45 37° E 02:38:45 37° E
Cosmos 2219 Rocket 4.0 02:55:06 26° E 02:55:06 26° E 02:58:55 10° NE
CZ-2D R/B 4.3 03:13:14 10° NNE 03:14:24 17° N 03:14:24 17° N
USA 267 3.8 03:14:13 10° ENE 03:20:18 50° SE 03:20:18 50° SE
Cosmos 1980 Rocket 4.2 03:27:56 19° N 03:27:56 19° N 03:29:56 10° NNE
H-2A R/B 3.8 03:26:05 10° NNE 03:28:05 24° NNE 03:28:05 24° NNE
Cosmos 2278 Rocket 3.7 03:29:48 28° NNE 03:31:24 33° NE 03:36:29 10° ESE
USA 238 DEB 3.9 03:33:04 57° NNE 03:33:04 57° NNE 03:38:50 10° NE
USA 238 3.9 03:33:10 58° NNE 03:33:10 58° NNE 03:38:57 10° NE
Cosmos 2333 Rocket 3.0 03:39:31 44° NNE 03:39:31 44° NNE 03:43:25 10° NNE
ADEOS II 4.0 03:38:12 10° N 03:39:55 21° N 03:39:55 21° N
Lacrosse 5 rocket 4.1 03:46:58 13° ENE 03:46:58 13° ENE 03:47:26 10° ENE
COSMOS 2455 3.1 03:45:06 66° NE 03:45:06 66° NE 03:50:15 10° NE
ACS3 Solar Sail 1.8 03:42:32 10° NNE 03:47:53 72° NNE 03:47:53 72° NNE
Resurs 1-4 Rocket 4.2 03:47:01 10° N 03:48:13 16° N 03:48:13 16° N
CENTAUR R/B 3.9 03:52:18 30° NNW 03:54:45 37° N 04:02:39 10° ENE
Cosmos 2360 Rocket 2.5 03:59:09 58° N 03:59:09 58° N 04:03:47 10° NNE
Cosmos 2322 Rocket 2.6 03:59:32 52° N 03:59:32 52° N 04:03:59 10° NNE
USA 234 3.3 03:52:50 10° SE 03:58:53 60° SSW 03:58:53 60° SSW
Cosmos 44 Rocket 3.6 04:05:02 67° ESE 04:05:02 67° ESE 04:09:33 10° SE
SL-16 R/B 3.2 04:06:02 35° N 04:06:02 35° N 04:09:52 10° NNE
Cosmos 1943 Rocket 2.8 04:06:17 31° N 04:08:40 53° NE 04:14:02 10° SE
H-2A R/B 4.5 04:08:09 10° NNE 04:11:15 40° ENE 04:11:15 40° ENE
Okean 1-7 3.7 04:13:10 51° ENE 04:13:10 51° ENE 04:16:46 10° NNE
Cosmos 1862 Rocket 4.5 04:15:09 40° NNE 04:15:09 40° NNE 04:17:59 10° NNE
ARGOS 3.2 04:08:59 10° NNE 04:14:27 80° ESE 04:16:18 43° S
Cosmos 1140 Rocket 3.5 04:15:55 57° N 04:16:56 75° ENE 04:22:02 10° SSE
Timation 2 Rocket 4.1 04:14:48 28° NNW 04:18:38 78° NE 04:25:06 10° SE
CZ-2C R/B 2.5 04:14:47 10° NNE 04:19:47 77° ESE 04:21:32 42° S
Cosmos 1809 Rocket 4.4 04:18:27 10° S 04:24:33 80° E 04:30:40 10° NNE
ADEOS Rocket 3.3 04:18:33 10° N 04:24:47 56° WNW 04:25:40 52° W
NOSS 3-1 (C) 3.7 04:27:25 29° S 04:29:33 50° SE 04:35:05 10° NE
Iridium 4 Rocket 4.4 04:26:28 10° N 04:30:36 38° ENE 04:34:31 10° SSE
SJ 16-02 3.8 04:27:35 10° N 04:30:43 19° NE 04:33:51 10° E
Cosmos 2100 Rocket 3.9 04:24:47 10° N 04:30:58 89° W 04:37:09 10° S
Cosmos 2219 Rocket 2.1 04:36:49 56° W 04:37:45 64° NW 04:43:25 10° NNE
SL-24 R/B - RUBIN 2 3.8 04:39:23 55° SW 04:40:32 83° NW 04:45:26 10° NE
TIMED 4.4 04:40:17 62° NNW 04:40:58 86° ENE 04:45:15 10° SSE
Cosmos 1707 Rocket 3.9 04:42:43 48° NNW 04:42:43 48° NNW 04:46:08 10° N
COSMOS 2428 3.0 04:42:02 10° SSW 04:47:40 67° ESE 04:53:19 10° NE
USA 59 Rocket -0.3 04:50:48 55° SE 04:50:50 55° SE 04:53:46 10° NE
SL-08 RB Rocket 3.5 04:46:51 10° N 04:51:25 70° WNW 04:53:29 32° SSW
Cosmos 1459 Rocket 3.9 04:45:49 10° NNW 04:52:11 73° W 04:58:29 10° S
Cosmos 1864 Rocket 4.4 04:46:47 10° N 04:53:05 89° W 04:59:25 10° S
Cosmos 2322 3.7 04:50:01 13° SSW 04:55:06 84° ESE 05:00:48 10° NNE
FengYun 1-2 T 4.4 04:50:49 10° NNE 04:56:23 74° ESE 05:01:58 10° S
CZ-2D R/B 4.1 04:54:39 10° NNW 04:55:38 13° NNW 04:55:38 13° NNW
Cosmos 407 Rocket 3.4 04:54:46 16° NNW 04:58:54 87° ENE 05:04:00 10° SSE
COSMO-SKYMED 1 3.0 04:55:46 10° SSE 04:59:49 59° ENE 05:03:54 10° N
Meteor 2-21 4.3 04:54:06 10° SSW 05:00:12 78° WNW 05:06:18 10° N
SKYMED 2 3.6 04:56:46 10° SSE 05:01:07 82° ENE 05:05:29 10° NNW
Cosmos 1725 Rocket 3.9 04:56:16 10° N 05:02:38 85° W 05:08:57 10° S
Cosmos 1727 Rocket 4.0 04:56:43 10° SSW 05:02:48 57° WNW 05:08:57 10° N
USA 267 3.2 04:57:19 10° ENE 05:03:53 79° NNW 05:07:39 28° WSW
Cosmos 2228 Rocket 3.2 05:03:28 46° W 05:03:53 47° WNW 05:08:10 10° N
Cosmos 2150 Rocket 4.4 05:03:46 37° WNW 05:04:34 40° NW 05:09:33 10° NNE
H-2A R/B 3.5 05:06:12 10° N 05:08:34 19° NW 05:08:34 19° NW
Cosmos 1802 Rocket 3.9 05:04:10 10° NNW 05:10:31 70° W 05:16:46 10° S
Cosmos 1269 Rocket 4.4 05:09:27 32° WNW 05:10:56 39° WSW 05:15:48 10° S
Cosmos 1980 Rocket 4.2 05:09:40 11° NNW 05:11:16 12° NNW 05:13:36 10° NNE
NOSS 3-1 (A) 4.0 05:09:13 10° SSW 05:13:44 46° ESE 05:19:13 10° NE
Cosmos 2233 Rocket 4.1 05:07:29 10° N 05:13:52 83° E 05:20:09 10° SSE
Lacrosse 4 Rocket 4.0 05:14:34 10° N 05:15:02 10° NNE 05:15:30 10° NNE
Cosmos 2278 Rocket 2.2 05:11:40 18° NW 05:15:52 62° WSW 05:21:25 10° SSE
Cosmos 1328 3.4 05:13:20 10° SSW 05:16:57 65° WNW 05:20:36 10° N
Cosmos 2251 Rocket 3.7 05:12:21 10° NNW 05:17:44 74° ENE 05:23:05 10° SSE
Cosmos 1703 Rocket 3.4 05:14:01 10° SSW 05:18:21 78° W 05:22:47 10° N
NOSS 2-1 (E) 2.8 05:18:53 26° SW 05:20:38 80° SE 05:23:42 10° NE
Cosmos 1939 Rocket 2.9 05:17:00 10° N 05:20:44 48° WNW 05:23:42 15° SW
Lacrosse 5 rocket 1.6 05:20:39 33° NW 05:21:20 37° N 05:24:31 10° ENE
Cosmos 2173 Rocket 4.2 05:15:42 10° NNW 05:21:25 43° W 05:27:04 10° SSW
ADEOS II 4.0 05:19:33 10° NNW 05:20:43 12° NNW 05:20:43 12° NNW
Meteor 2-16 Rocket 4.4 05:16:42 10° SSW 05:22:48 84° WNW 05:28:59 10° N
Cosmos 2333 Rocket 3.4 05:21:33 22° NW 05:22:51 23° NW 05:27:26 10° NNE
USA-17 4.1 05:22:08 44° WNW 05:22:57 73° SW 05:26:13 10° SE
Cosmos 2237 Rocket 2.9 05:18:14 10° S 05:23:45 56° ESE 05:29:17 10° NE
SL-08 R/B 4.4 05:18:39 10° NNW 05:24:45 73° W 05:30:53 10° S
BlueWalker 3 3.4 05:27:40 19° SW 05:27:51 20° SW 05:30:31 10° S
Cosmos 2292 Rocket 3.8 05:24:29 10° S 05:28:49 87° W 05:34:30 10° N
COSMOS 2455 3.8 05:28:15 22° WNW 05:30:51 31° NNW 05:36:10 10° NNE
ACS3 Solar Sail 2.8 05:26:26 10° N 05:30:54 22° NW 05:32:02 21° WNW
Cosmos 2369 Rocket 3.4 05:28:12 10° NNW 05:33:31 39° NE 05:38:49 10° ESE
Meteor 1-24 Rocket 3.7 05:27:49 10° SSW 05:33:33 64° WNW 05:39:05 10° N
Helios 1A Rocket 2.7 05:31:01 10° S 05:34:16 42° W 05:36:22 19° NW
CZ-4 R/B 3.8 05:30:18 10° NNE 05:35:15 76° WNW 05:40:04 10° SSW
Cosmos 1782 Rocket 3.5 05:32:45 10° NNW 05:37:06 60° W 05:41:24 10° S
SJ-11-01 4.4 05:37:44 10° N 05:42:16 50° WNW 05:46:47 10° SW
Cosmos 2360 Rocket 3.5 05:40:55 18° WNW 05:43:02 22° NW 05:47:25 10° NNE
Cosmos 2322 Rocket 3.6 05:41:20 17° WNW 05:43:24 21° NNW 05:47:40 10° NNE
Cosmos 2123 Rocket 4.1 05:38:15 10° SSW 05:44:19 53° WNW 05:50:23 10° N
NOAA 12 4.0 05:39:11 10° NNE 05:44:31 74° WNW 05:49:49 10° SSW
Meteor 2-5 Rocket 3.8 05:38:54 10° SSW 05:44:44 59° WNW 05:50:32 10° N
Gbstr 26 Del rocket 3.9 05:41:19 13° WSW 05:45:49 70° SSE 05:52:05 10° E
H-2A R/B 4.5 05:42:57 10° N 05:45:56 22° WNW 05:46:34 21° WNW
CENTAUR R/B 3.6 05:39:24 11° NW 05:46:54 62° NE 05:55:59 10° ESE
Okean 1-7 4.3 05:49:34 19° WNW 05:50:01 19° WNW 05:53:05 10° NNW
SL-16 R/B 3.9 05:47:53 13° NW 05:50:08 16° NNW 05:53:31 10° NNE
Cosmos 1943 Rocket 2.8 05:47:50 13° NW 05:52:11 33° WSW 05:57:02 10° S
Cosmos 2016 Rocket 4.4 05:46:44 10° NNW 05:52:42 43° W 05:58:37 10° SSW
ARGOS 4.3 05:50:02 10° N 05:54:07 22° NW 05:57:45 12° W
Cosmos 1812 2.5 05:53:14 10° N 05:56:09 60° ENE 05:59:02 10° SSE
CZ-2C R/B 3.7 05:53:42 10° N 05:57:21 21° WNW 06:00:45 11° WSW
Cosmos 1300 Rocket 4.1 05:53:33 10° NNW 05:57:30 35° W 06:01:25 10° SSW
Cosmos 374 Rocket 4.4 05:57:57 10° SW 06:01:47 70° NW 06:06:21 10° NE
Cosmos 2346 Rocket 4.4 05:56:49 10° S 06:02:59 85° W 06:09:08 10° N
NOSS 2-1 (C) 3.3 06:00:52 14° WSW 06:03:21 37° NW 06:06:09 10° NE
NOSS 2-1 (D) 3.4 06:04:54 13° W 06:07:21 33° NW 06:10:06 10° NNE
SJ 16-02 1.2 06:05:03 10° NNW 06:09:21 71° WSW 06:13:37 10° SSE
Iridium 4 Rocket 4.0 06:06:34 10° NNW 06:10:10 25° W 06:13:37 10° SW
Aureole 3 Rocket 3.3 06:06:21 10° NNW 06:10:25 71° W 06:16:02 10° S
Okean 1 Rocket 4.3 06:06:32 10° N 06:10:42 42° ENE 06:14:49 10° SE
Cosmos 2061 Rocket 4.3 06:07:16 10° NNW 06:13:06 44° W 06:18:55 10° SSW
CBERS-1 4.1 06:09:29 10° NNE 06:14:39 84° ESE 06:19:46 10° SSW
SWARM C 4.4 06:14:33 10° S 06:17:51 72° W 06:21:11 10° N
SWARM A 4.2 06:14:37 10° S 06:17:57 85° W 06:21:17 10° N
Cosmos 1190 Rocket 4.3 06:13:43 10° NW 06:18:45 47° WSW 06:23:45 10° S
IRS-1D 4.1 06:14:20 10° N 06:18:49 34° WNW 06:23:12 10° SW
Cosmos 676 Rocket 4.0 06:14:35 10° NNW 06:19:51 70° WSW 06:25:01 10° SSE
NOSS 3-1 (C) 3.6 06:15:29 10° WSW 06:20:21 46° NNW 06:26:25 10° NE
Cosmos 1378 Rocket 3.8 06:16:18 10° S 06:20:33 71° E 06:24:49 10° NNE
Cosmos 1869 3.4 06:17:52 10° NNW 06:21:10 39° W 06:24:26 10° SSW
SL-16 R/B 3.4 06:16:35 10° S 06:22:01 49° ESE 06:27:30 10° NE
Cosmos 2219 Rocket 3.6 06:18:41 10° WNW 06:22:49 20° NNW 06:26:59 10° NNE
In-Cosmos 22 Rocket 4.4 06:17:12 10° S 06:23:01 89° W 06:28:54 10° NNE
Cosmos 2056 Rocket 3.8 06:21:25 10° SSW 06:26:50 82° ESE 06:32:16 10° NNE
Okean 2 Rocket 3.3 06:24:04 10° N 06:28:27 74° E 06:32:48 10° SSE
Cosmos 371 Rocket 3.5 06:25:16 10° NNW 06:30:00 55° WSW 06:34:43 10° S
NOSS 0 Rocket 4.2 06:24:51 10° WSW 06:30:46 47° NW 06:36:44 10° NNE
COSMOS 2428 3.5 06:27:17 10° WSW 06:32:21 32° NW 06:37:25 10° NNE
Cosmos 1484 Rocket 3.1 06:31:59 10° N 06:35:17 36° WNW 06:38:34 10° SW
COSMO-SKYMED 1 3.9 06:32:43 10° SW 06:35:32 18° W 06:38:21 10° NW
Cosmos 1954 Rocket 4.5 06:31:57 10° NW 06:36:49 40° WSW 06:41:36 10° S
